Regional Weather Roundup
Issued by NWS

Home | Current Version | Previous Version | Graphics & Text | Print | Product List | Glossary On
Versions: 1 2 3 4 5 6 7 8 9 10 11 12 13 14 15 16 17 18 19 20 21 22 23 24 25 26 27 28 29 30 31 32 33 34 35 36 37 38 39 40 41 42 43 44 45 46 47 48 49 50
000
ASUS45 KBOI 271510
RWRID
WEATHER ROUNDUP FOR IDAHO
NATIONAL WEATHER SERVICE BOISE ID
800 AM MST SAT DEC 27 2014

NOTE: "FAIR" INDICATES FEW OR NO CLOUDS BELOW 12000 FEET
WITH NO SIGNIFICANT WEATHER AND/OR OBSTRUCTIONS TO VISIBILITY

IDZ012-014-271600-
SOUTHWEST IDAHO


CITY           SKY/WX    TMP DP  RH WIND       PRES   REMARKS
BOISE          MOCLDY    24  16  71 SE9       30.32F WCI  14
CALDWELL       MOCLDY    21  12  68 NE6       30.36S WCI  14
MOUNTAIN HOME  PTCLDY    20  17  87 E8        30.35R WCI  10
$$

IDZ016-017-271600-
SOUTHCENTRAL IDAHO


CITY           SKY/WX    TMP DP  RH WIND       PRES   REMARKS
BURLEY         CLOUDY    24  14  65 SW12      30.28S WCI  13
JEROME         MOCLDY    18  13  80 NW5       30.31R WCI  11
TWIN FALLS     CLOUDY    27  17  66 S10       30.30R WCI  17
$$

IDZ019>023-271600-
SOUTHEAST IDAHO


CITY           SKY/WX    TMP DP  RH WIND       PRES   REMARKS
IDAHO FALLS    CLOUDY     9   6  88 NE3       30.28S
POCATELLO      CLOUDY    20  16  84 S6        30.29S WCI  12
REXBURG        CLOUDY     7   5  91 CALM      30.26S
$$

IDZ006-010-011-018-031-032-271600-
CENTRAL IDAHO MOUNTAINS


CITY           SKY/WX    TMP DP  RH WIND       PRES   REMARKS
MCCALL         CLOUDY     9   7  92 CALM      30.21F
HAILEY         MOCLDY     5   0  78 NW9       30.24S WCI  -9
STANLEY          N/A     -7 -14  71 SE3       30.22S
SALMON         CLOUDY    18   7  62 W9        30.25R WCI   6
CHALLIS        MOCLDY     6   1  80 SW3       30.24F
$$

IDZ002-004-006-007-026-271600-
NORTHERN IDAHO


CITY           SKY/WX    TMP DP  RH WIND       PRES   REMARKS
LEWISTON       CLOUDY    33  25  72 CALM      30.24S
LOWELL           N/A     32  30  92 CALM      30.31F
COEUR D`ALENE  CLOUDY    30  27  86 S8        30.16S WCI  23
MULLAN PASS    LGT SNOW  20  15  81 SW8       30.01S WCI  10
$$



USA.gov is the U.S. government's official web portal to all federal, state and local government web resources and services.